Regional Weather Roundup
Issued by NWS

Home | Current Version | Previous Version | Text Only | Print | Product List | Glossary On
Versions: 1 2 3 4 5 6 7 8 9 10 11 12 13 14 15 16 17 18 19 20 21 22 23 24 25 26 27 28 29 30 31 32 33 34 35 36 37 38 39 40 41 42 43 44 45 46 47 48 49 50
000
ASUS43 KIND 200909
RWRIN

WEATHER ROUNDUP FOR INDIANA
NATIONAL WEATHER SERVICE INDIANAPOLIS IN
500 AM EDT FRI APR 20 2018

NOTE: "FAIR" INDICATES FEW OR NO CLOUDS BELOW 12,000 FEET WITH NO
SIGNIFICANT WEATHER AND/OR OBSTRUCTIONS TO VISIBILITY.

* - STATION DOES NOT REPORT WEATHER SUCH AS PRECIPITATION OR FOG.

+ - STATION NOT QUALITY CONTROLLED BY THE NATIONAL WEATHER SERVICE.
    USE DATA WITH CAUTION...ESPECIALLY DEWPOINT AND RELATIVE
    HUMIDITY OBSERVATIONS.

INZ001>003-010>013-019-020-201000-
NORTHWEST INDIANA

CITY           SKY/WX    TMP DP  RH WIND       PRES   REMARKS
GARY /AIRPORT/ FAIR      29  29 100 CALM      30.47R
KNOX *+        FAIR      27  23  86 CALM      30.46R
LA PORTE +     FAIR      29  26  88 CALM      30.46R
MICHIGAN CITY+ FAIR      28  28 100 CALM      30.47R
MONTICELLO +   FAIR      29  22  75 NW5       30.45R WCI  24
RENSSELAER +   FAIR      32  23  69 CALM      30.46S
VALPARAISO     FAIR      34  25  69 CALM      30.46R

$$

LMZ046-743>745-201000-
SOUTHERN LAKE MICHIGAN

STATION/POSITION TIME  TEMP    WIND        PRES    WAVE
                       AIR SEA DIR/SP/G            HT
                 (UTC) (F)     (DEG/KT/KT) (MB)    (FT)
BURNS HARBOR     0840   40     350/  3/  5 1031.8R
MICHIGAN CITY    0840   38      CALM  /  1   N/A

$$

INZ004-005-014>016-021>024-201000-
NORTH CENTRAL INDIANA

CITY           SKY/WX    TMP DP  RH WIND       PRES   REMARKS
GOSHEN         FAIR      31  23  72 NW5       30.43R WCI  26
LOGANSPORT +   FAIR      32  23  69 N3        30.46R
PERU/GRISSOM   FAIR      31  24  75 CALM      30.43R
ROCHESTER +    FAIR      32  28  86 CALM      30.45R
SOUTH BEND     FAIR      25  22  88 W3        30.45R
WARSAW +       FAIR      32  23  69 CALM      30.43R

$$

INZ006>009-017-018-025>027-201000-
NORTHEAST INDIANA

CITY           SKY/WX    TMP DP  RH WIND       PRES   REMARKS
ANGOLA *+      FAIR      32  21  64 CALM      30.41R
AUBURN +       FAIR      32  23  69 CALM      30.42R
FORT WAYNE     FAIR      29  23  78 NW6       30.43R WCI  23
HUNTINGTON +   FAIR      28  20  71 W3        30.43R
KENDALLVILLE + FAIR      32  16  52 N3        30.42R

$$

INZ028-029-035-036-043>045-051>053-201000-
WEST CENTRAL INDIANA

CITY           SKY/WX    TMP DP  RH WIND       PRES   REMARKS
CRAWFORDSVL +  FAIR      31  21  67 N6        30.45R WCI  25
GREENCASTLE +  FAIR      32  21  64 N6        30.45R WCI  26
LAFAYETTE      FAIR      27  23  85 CALM      30.46R
TERRE HAUTE    FAIR      35  16  45 N3        30.45R

$$

INZ030>032-037>040-046>048-054>057-064-065-201000-
CENTRAL INDIANA

CITY           SKY/WX    TMP DP  RH WIND       PRES   REMARKS
FISHERS *+     FAIR      28  25  86 CALM      30.44R
FRANKFORT +    FAIR      34  24  66 N6        30.46R WCI  29
GREENWOOD *+   FAIR      30  20  66 N6        30.43S WCI  24
INDIANAPOLIS   FAIR      33  19  56 N7        30.43S WCI  27
-EAGLE CREEK   FAIR      33  18  53 N5        30.43R WCI  29
KOKOMO +       FAIR      29  24  82 CALM      30.44R
MARION +       FAIR      30  23  74 CALM      30.44R
MT COMFORT *+  FAIR      28  25  86 CALM      30.43R
SHELBYVILLE    FAIR      32  23  69 N8        30.42R WCI  25
ZIONSVILLE +   FAIR      30  22  70 N3        30.44S

$$

INZ033-034-041-042-049-050-058-059-201000-
EAST CENTRAL INDIANA

CITY           SKY/WX    TMP DP  RH WIND       PRES   REMARKS
MUNCIE         FAIR      32  21  64 NW3       30.42R
RICHMOND +     FAIR      32  27  80 N7        30.41R WCI  26

$$

INZ060-061-067>069-081>083-085>088-201000-
SOUTHWEST INDIANA

CITY           SKY/WX    TMP DP  RH WIND       PRES   REMARKS
EVANSVILLE     FAIR      39  22  50 N12       30.42S WCI  32
HUNTINGBURG +  FAIR      37  19  48 N7        30.42R WCI  32
WASHINGTON +   FAIR      33  20  58 N3        30.44R

$$

INZ062-063-066-070>080-084-089>092-201000-
SOUTH CENTRAL AND SOUTHEAST INDIANA

CITY           SKY/WX    TMP DP  RH WIND       PRES   REMARKS
BATESVILLE +   CLEAR     34  23  64 MISG      30.41R
BEDFORD +      FAIR      36  16  44 CALM      30.41S
BLOOMINGTON    FAIR      32  19  58 N8        30.42R WCI  25
FRENCH LICK *+ FAIR      36  10  35 NE7       30.41S WCI  30
MADISON *+     FAIR      34  25  69 CALM      30.42S
NORTH VERNON + FAIR      30  23  74 N7        30.42R WCI  23
SEYMOUR +      FAIR      36  21  55 N6        30.42R WCI  31

$$




USA.gov is the U.S. government's official web portal to all federal, state and local government web resources and services.